Theta_e
314 319 324 320 313 312 312 309 304 311 314 312 311 314 317 316 317 315 315 316 317 318 318 318 317 317 317 313 312 314 313 315 314 313 313 313 315 315 315 318 319 322 324 322
312 315 321 323 317 313 312 308 307 311 312 310 310 313 316 316 317 316 315 316 316 316 318 318 316 316 313 311 312 313 314 316 317 314 316 313 312 311 311 312 320 322 319 319
312 312 317 321 321 313 312 309 306 312 312 311 311 312 314 315 315 316 315 316 315 316 316 315 316 315 314 311 311 314 312 316 317 318 315 313 313 312 311 310 317 316 315 311
312 311 312 319 320 316 312 310 308 308 311 311 312 312 313 315 315 314 314 315 316 316 316 315 314 315 314 310 312 312 313 317 314 313 312 311 311 311 310 310 314 317 314 312
309 309 310 310 312 318 312 313 309 308 309 309 310 310 312 313 315 314 314 315 315 315 316 316 316 316 315 315 311 311 310 313 310 314 314 312 313 314 314 314 316 316 316 314
307 308 309 309 310 316 312 314 311 308 308 309 310 312 310 312 314 313 315 314 316 314 315 314 315 314 314 313 312 313 311 312 315 317 313 314 317 317 316 315 316 316 312 315
308 307 308 308 308 311 315 315 313 309 308 310 310 310 311 311 314 314 314 315 316 314 311 310 310 310 310 310 310 310 312 312 313 315 317 321 317 314 315 316 315 314 312 314
307 308 307 308 309 310 312 314 310 312 312 309 309 310 310 310 313 314 314 314 315 311 312 314 314 313 312 310 308 308 309 311 313 317 319 318 317 315 314 314 315 315 313 313
307 306 308 308 307 306 311 315 310 313 314 314 309 309 310 311 312 313 312 307 310 312 314 316 317 318 317 315 310 307 308 309 312 316 320 321 317 313 312 312 316 315 314 314
306 307 306 308 307 307 310 314 313 309 313 314 312 309 311 311 312 313 310 308 308 311 315 315 317 316 316 318 317 312 311 311 313 315 319 319 317 312 310 315 318 312 313 314
307 307 306 307 307 308 311 312 313 311 312 313 311 310 311 311 313 313 310 309 310 311 315 315 315 316 315 316 317 314 315 316 315 315 317 320 315 311 314 317 314 313 313 314
304 305 305 306 306 307 309 310 308 310 311 313 307 305 305 310 312 312 310 312 312 313 314 315 316 316 316 316 317 314 316 316 318 317 319 317 314 316 314 314 315 314 314 314
303 304 304 306 306 306 309 309 306 308 308 309 309 310 305 306 308 310 311 312 313 313 314 314 315 315 315 316 315 316 314 315 316 316 316 315 315 314 313 313 314 314 315 314
303 303 304 304 305 305 306 307 306 309 310 313 311 310 305 306 306 307 309 311 308 312 312 313 315 316 313 315 315 316 315 313 314 315 315 315 314 314 314 314 314 313 313 314
303 303 305 305 306 306 305 308 307 309 311 310 310 309 307 305 305 305 307 309 309 310 311 313 314 313 313 313 313 315 313 315 315 316 315 315 316 315 315 314 314 314 313 313
304 304 305 304 305 306 307 309 308 308 309 308 309 304 307 305 305 305 307 309 310 311 311 311 311 310 312 317 313 312 313 313 314 315 313 313 314 314 311 312 312 312 312 312
302 303 303 303 304 305 306 308 307 309 308 306 304 306 304 305 306 306 306 307 308 309 310 310 311 310 309 315 315 311 311 312 311 311 311 311 311 312 310 309 310 310 309 309
302 303 303 303 304 305 305 305 305 307 304 305 305 306 305 304 307 307 307 307 308 308 309 309 310 309 309 315 310 310 310 309 308 309 310 310 310 311 311 310 309 309 309 309
302 303 303 302 302 304 305 305 304 305 303 302 303 308 311 304 307 307 307 307 308 308 309 308 309 310 314 311 311 310 309 309 308 308 308 309 309 309 309 310 309 308 309 308
300 300 301 303 303 304 305 303 303 301 300 302 307 309 307 308 307 308 308 308 311 312 310 310 311 312 311 310 308 308 308 308 307 307 308 308 308 308 308 309 309 309 308 308
301 299 303 303 304 305 305 302 304 300 302 300 306 307 308 308 310 309 308 310 309 310 311 309 310 312 310 309 308 308 308 308 308 308 308 308 308 308 309 308 308 308 309 308
298 302 301 302 299 299 304 304 304 304 308 304 309 307 307 307 307 308 306 309 308 310 308 309 311 311 309 308 307 307 308 309 308 308 308 308 308 308 308 308 308 307 307 306
299 301 302 302 300 303 306 306 307 309 306 305 308 307 304 305 307 308 310 310 309 307 308 309 308 311 310 309 308 308 308 308 308 307 308 308 308 307 307 307 306 306 306 305
298 301 302 303 304 304 306 306 308 307 307 306 308 307 307 307 308 309 311 309 307 310 311 312 311 310 309 309 309 309 309 309 309 309 308 308 307 307 306 305 305 305 305 304
299 301 303 303 303 304 304 304 304 304 305 306 307 307 308 310 309 310 307 307 311 311 312 312 312 310 310 309 309 309 309 307 307 307 306 306 305 305 305 304 304 304 304 304
299 299 302 303 303 304 303 304 305 305 305 306 307 307 309 310 310 309 310 311 311 312 311 311 312 311 310 309 308 308 308 307 306 305 305 305 304 304 304 303 304 304 304 303
300 299 302 303 303 304 305 305 305 304 305 307 306 309 310 310 310 310 311 312 312 312 311 309 310 310 309 309 308 307 306 306 305 304 304 304 304 304 304 304 303 303 303 303
Wind_Speed
22 21 43 37 32 25 18 9 6 12 16 8 8 14 12 2 11 6 4 3 6 8 7 5 4 2 1 3 1 4 3 5 4 2 4 1 3 4 6 4 6 4 4 4
26 21 36 39 37 34 17 5 6 7 13 9 13 11 6 8 10 10 9 9 7 4 7 5 5 4 4 4 2 3 1 3 5 8 4 3 4 1 4 6 4 7 4 4
20 22 17 41 45 40 19 6 7 5 7 12 14 18 15 10 11 9 6 7 8 8 7 4 5 5 4 4 3 2 1 6 8 7 7 5 9 8 6 6 4 8 3 5
22 20 25 26 43 43 31 7 13 12 10 16 16 16 12 19 10 8 12 7 12 11 7 7 6 7 6 5 5 3 4 6 6 11 11 11 13 12 12 13 12 7 8 6
27 24 22 24 12 44 22 10 8 8 12 20 24 17 20 21 18 16 12 12 17 14 8 8 9 11 8 5 7 6 4 4 6 12 7 5 10 9 10 12 12 12 13 12
28 28 23 23 22 42 12 15 14 6 12 16 18 24 24 23 17 14 13 18 11 16 14 6 6 4 3 1 5 8 4 3 4 3 2 8 11 4 11 12 7 9 6 5
28 27 26 25 22 21 16 25 10 6 13 15 18 20 23 21 24 15 15 12 15 7 15 13 9 7 3 4 5 4 4 5 3 5 8 4 4 3 2 9 6 8 6 3
29 29 29 25 23 19 23 21 10 10 14 15 20 18 16 20 12 18 15 12 11 17 16 6 5 4 4 5 2 7 7 5 4 3 4 11 1 4 4 7 5 9 11 7
29 29 29 27 19 16 22 21 27 10 12 20 20 16 15 12 13 13 8 4 17 18 5 7 9 7 6 6 6 2 7 8 5 2 3 3 6 5 3 1 7 4 8 10
28 26 27 28 23 21 25 14 31 6 7 13 14 13 17 13 13 11 10 12 7 7 8 7 7 9 2 9 10 7 6 6 11 9 5 6 4 8 5 4 3 2 7 9
26 25 25 25 24 20 17 19 31 20 7 10 17 13 13 14 14 12 11 9 7 7 10 8 6 7 8 7 9 9 10 9 6 7 6 7 11 7 5 5 4 5 7 7
24 24 23 25 20 19 17 7 30 36 4 4 10 12 16 11 18 6 15 8 16 9 8 7 5 4 5 9 6 9 7 7 4 9 5 4 15 2 7 3 5 5 7 7
22 22 21 23 19 15 14 7 21 16 3 2 4 14 15 9 10 14 7 7 11 12 3 6 5 5 9 8 11 10 10 10 4 3 11 12 9 12 7 8 8 6 7 7
21 20 20 21 20 14 12 5 26 14 3 2 4 18 11 2 5 10 13 13 4 9 5 5 4 4 7 9 6 12 5 13 12 9 9 2 9 14 14 12 12 12 11 11
18 19 19 18 22 17 12 16 24 21 3 4 3 9 16 4 4 5 9 20 11 8 6 5 6 3 5 1 3 10 8 9 10 8 8 11 8 11 13 12 12 13 13 12
16 19 18 16 16 13 7 3 18 25 9 3 3 3 9 12 8 3 9 10 8 6 5 6 5 4 5 6 9 16 16 15 16 15 13 10 13 7 7 11 12 12 12 12
17 17 15 14 16 18 3 2 6 23 19 3 2 4 3 19 15 4 2 4 2 3 4 5 7 6 4 5 12 7 15 15 15 16 15 16 21 10 11 15 13 14 13 13
9 11 11 12 14 7 9 20 10 17 8 1 4 3 4 13 9 10 6 5 3 3 4 2 8 5 4 7 14 17 21 15 13 19 16 19 18 15 13 12 10 12 12 12
13 10 18 8 3 3 4 9 10 11 2 5 3 8 5 7 5 3 5 4 5 2 5 8 7 8 10 10 14 17 21 19 19 20 18 21 21 20 19 16 15 15 15 14
11 10 4 4 8 12 16 3 2 1 1 2 3 4 5 11 5 5 5 3 4 4 7 5 8 16 20 16 9 14 16 19 19 20 20 22 20 19 21 22 18 15 15 13
6 3 2 7 20 6 2 2 3 3 3 3 4 7 11 8 11 7 6 6 6 5 6 8 6 11 15 21 20 23 21 20 19 21 21 19 20 18 17 17 16 13 13 13
13 3 7 3 3 2 4 4 3 4 3 4 9 10 8 5 3 4 3 5 6 7 8 5 5 5 9 19 30 27 24 22 23 22 21 20 20 19 17 15 13 13 15 18
7 3 3 2 2 4 6 9 4 4 5 7 12 13 5 3 2 3 4 8 8 7 5 5 5 4 12 12 15 19 19 18 19 20 20 18 18 22 17 12 15 16 14 15
2 3 6 5 5 5 4 2 3 3 7 10 12 9 5 4 6 4 6 3 4 5 6 6 5 15 11 12 12 13 14 14 15 14 12 12 13 12 16 17 15 15 12 13
3 3 5 7 3 3 2 3 4 5 5 12 11 4 3 4 4 3 4 4 6 9 5 4 7 10 12 10 10 11 10 11 10 9 10 10 11 11 10 13 14 14 14 15
2 3 2 2 5 5 4 5 5 4 8 12 3 4 4 4 4 7 9 7 8 4 4 2 3 8 8 8 7 8 10 10 9 9 9 10 10 10 10 12 13 14 14 15
4 3 5 3 2 3 4 4 4 5 9 5 3 6 5 6 5 6 6 5 5 2 2 4 6 7 6 7 8 9 10 10 10 10 10 11 12 12 13 10 13 13 12 12
Wind_Direction
290 262 229 224 216 206 192 226 220 158 165 200 215 229 215 166 178 180 176 233 229 203 180 197 219 225 36 120 249 294 45 312 281 9 99 226 308 337 325 329 345 303 264 71
286 293 229 222 211 196 188 215 198 177 184 213 212 217 195 207 176 192 183 189 196 182 188 204 211 190 89 148 224 323 51 202 279 158 169 177 240 319 294 305 267 276 315 68
270 272 276 221 206 197 200 228 193 167 210 244 239 207 210 198 204 195 191 163 161 167 188 186 177 205 157 184 227 9 297 265 266 296 340 311 285 289 238 287 274 341 298 358
256 267 270 217 211 198 183 222 222 191 196 210 213 225 205 199 178 213 188 184 199 179 178 181 203 204 152 184 163 211 251 263 266 278 280 277 279 273 265 243 255 280 356 316
261 264 263 274 284 207 210 197 225 212 226 199 204 211 213 205 185 169 194 222 197 193 185 193 187 175 194 200 181 198 199 279 288 288 253 246 262 259 246 243 253 260 275 283
256 261 264 275 281 191 181 240 215 236 211 208 197 212 210 202 186 204 194 200 184 199 204 158 111 139 124 152 187 201 219 274 299 273 212 282 265 271 230 230 231 231 256 52
257 250 257 262 264 241 215 199 210 212 228 203 213 210 214 210 200 184 191 188 190 151 114 107 98 101 130 205 203 254 226 239 275 285 300 236 87 89 351 218 242 226 239 186
254 249 253 251 254 270 270 198 191 205 225 212 217 213 203 211 199 214 174 195 177 150 148 152 163 167 180 183 215 229 229 226 270 268 288 290 161 171 218 214 243 217 224 192
253 251 245 246 245 260 270 225 201 187 220 223 208 213 196 198 193 192 144 118 158 163 159 186 203 197 196 166 155 171 201 242 252 206 271 265 91 144 155 225 260 148 205 182
253 250 246 241 251 254 237 229 213 162 192 237 221 201 198 192 177 182 150 149 171 200 187 192 202 214 189 168 179 169 168 196 219 230 253 273 151 146 159 228 65 149 188 175
246 248 246 240 246 252 249 250 218 197 191 220 244 238 190 204 196 179 152 141 192 178 199 196 189 223 194 214 167 173 171 174 193 209 220 251 141 136 219 99 115 150 181 178
248 247 246 238 244 250 255 241 204 191 213 210 203 249 291 268 199 150 173 211 157 179 180 193 183 189 163 197 198 197 207 204 193 200 221 122 178 45 175 195 160 172 190 193
245 246 247 236 238 243 243 228 175 171 141 84 168 224 236 263 233 200 159 222 186 181 236 164 194 210 182 185 226 180 222 191 216 175 228 214 205 223 218 211 222 207 199 192
242 247 251 239 235 234 226 188 183 189 110 153 202 211 240 303 273 238 243 161 135 150 170 175 172 207 206 213 238 207 180 162 204 238 245 214 232 226 227 223 232 236 231 227
240 245 248 239 223 222 217 222 192 190 152 159 154 187 216 229 260 235 168 152 148 163 174 200 200 176 173 224 237 214 183 186 190 218 214 212 252 199 215 217 230 234 231 232
246 245 237 226 221 218 192 199 204 213 172 113 162 337 176 206 212 225 179 168 181 191 184 203 207 90 229 200 235 220 203 217 225 241 261 258 256 222 196 215 213 224 226 229
248 235 227 219 207 205 195 193 131 192 170 124 134 123 145 185 203 222 262 252 142 192 191 222 212 193 195 240 233 182 222 226 228 243 254 253 255 239 217 230 236 247 241 236
214 204 191 192 183 179 216 243 246 169 97 25 119 112 147 166 168 179 208 216 205 189 221 182 218 158 213 247 223 227 244 228 227 233 232 242 255 251 229 224 216 218 218 219
194 170 149 122 135 188 197 176 142 198 167 151 150 159 151 174 181 83 175 182 196 99 234 219 190 220 221 224 235 223 235 229 233 238 239 242 244 246 245 230 222 230 234 225
180 152 157 183 181 155 134 112 99 24 334 113 188 157 140 152 147 154 135 197 203 207 211 187 236 243 248 240 221 239 238 234 230 236 228 234 240 240 239 235 241 239 224 231
162 166 206 92 134 144 139 158 177 154 187 165 198 173 146 161 168 151 157 172 177 216 179 197 229 248 230 220 234 241 235 228 235 230 235 239 235 236 239 245 247 241 236 218
172 150 109 138 79 75 173 182 147 197 189 189 164 158 134 125 123 129 201 175 185 225 142 204 243 204 160 199 217 231 235 234 236 236 240 244 247 250 254 247 231 239 240 226
143 205 117 180 146 211 209 166 171 183 175 194 163 146 140 148 126 122 163 181 204 122 196 227 227 179 217 208 213 226 232 234 234 240 241 241 243 241 241 247 235 232 216 219
167 155 140 217 181 212 195 170 13 11 194 178 169 145 135 134 181 138 179 163 134 215 227 228 177 229 215 213 214 218 220 224 226 228 227 228 226 223 221 225 218 219 215 204
162 172 200 196 196 107 147 206 203 240 227 170 158 98 110 124 114 175 106 161 234 217 232 179 231 227 221 216 214 212 202 195 200 194 195 201 199 197 198 204 203 200 198 191
152 222 219 129 167 177 191 237 288 196 218 169 104 122 145 155 152 168 205 190 220 196 223 245 219 206 191 180 186 200 199 191 182 176 177 175 177 179 179 177 181 182 177 177
180 230 229 197 214 170 173 147 228 261 207 179 164 162 153 138 183 203 203 215 173 207 170 220 221 218 206 196 179 173 166 165 164 158 157 153 153 154 154 159 159 152 148 141